Lapse_Rate
7.3 7.6 7.9 8.2 8.4 8.6 8.0 7.9 8.0 8.0 8.2 7.2 7.1 8.1 8.3 7.9 7.8 7.7 7.3 6.8 6.4 6.1 6.0 5.9 5.8 5.5 5.7 6.1 6.1 6.2 6.1 6.4 6.2 6.1 6.2 6.1 5.8 5.8 5.8 6.2 6.0 5.7 5.7 5.9
7.3 7.5 8.8 7.9 8.1 8.3 8.0 7.3 7.9 7.2 8.0 6.8 7.5 5.6 8.0 7.7 7.5 7.5 7.6 7.1 6.6 6.2 6.0 5.9 5.8 5.5 5.5 5.7 6.0 5.7 5.9 6.0 6.3 6.1 6.2 6.2 6.3 6.2 6.2 6.0 5.9 5.9 5.9 6.0
7.6 7.9 8.7 9.1 9.1 8.9 8.8 7.6 7.8 7.8 6.5 7.6 6.8 6.0 8.2 7.5 6.9 7.4 7.2 7.2 6.8 6.6 6.1 6.0 5.9 5.7 5.4 5.5 6.0 5.8 6.1 6.4 6.1 5.8 6.1 6.3 5.6 5.7 6.1 6.3 5.9 6.0 6.4 6.3
7.9 8.2 8.7 9.3 9.2 9.3 8.9 8.4 8.1 7.6 7.3 8.3 8.2 6.5 6.8 8.3 7.7 7.3 7.5 7.2 6.9 6.7 6.5 6.3 6.1 5.9 5.7 5.7 6.0 5.9 6.2 6.2 6.0 6.2 6.3 6.6 6.3 6.3 6.3 6.2 6.0 6.1 6.3 6.2
8.0 8.4 8.9 9.4 9.5 9.6 9.7 9.5 9.3 7.7 8.7 9.1 8.9 8.8 7.5 7.6 8.1 7.7 7.6 7.5 7.3 7.0 6.8 6.6 6.4 6.3 6.0 6.0 6.1 6.0 6.1 6.2 6.0 6.2 6.5 6.6 6.4 6.4 6.3 6.2 5.8 5.2 6.1 6.1
8.2 8.8 9.3 9.4 9.6 9.6 9.7 9.6 9.7 9.7 9.7 9.0 9.2 8.8 8.2 8.9 8.8 8.5 8.1 7.6 7.3 7.3 7.2 6.9 6.8 6.5 6.1 6.1 6.0 5.9 6.1 6.2 6.2 6.3 6.6 6.6 6.4 6.0 6.3 6.2 6.1 5.8 5.7 6.0
8.4 8.4 9.2 9.4 9.5 9.7 9.7 9.5 9.2 8.5 8.2 7.7 8.4 8.4 8.1 8.9 8.7 8.2 8.7 7.8 7.6 7.5 7.6 7.4 7.1 6.6 6.3 6.2 6.3 6.2 6.2 6.1 6.2 6.1 6.4 6.5 6.3 6.4 6.4 5.9 6.1 6.5 6.3 5.2
8.7 8.4 8.9 9.4 9.6 9.7 9.6 9.4 9.0 8.0 6.9 8.4 9.0 8.0 8.2 8.6 8.7 8.1 8.5 7.9 7.7 7.9 7.8 7.6 7.4 7.1 6.5 6.4 6.5 6.7 6.6 6.5 6.1 6.2 6.3 6.6 6.3 6.1 5.9 6.2 6.3 6.6 6.1 6.1
9.0 9.0 9.3 9.4 9.5 9.4 9.2 9.2 9.3 9.4 8.9 8.9 9.0 8.5 8.5 9.0 8.5 8.1 8.3 8.1 8.2 8.3 7.9 7.8 7.6 7.3 6.6 6.6 6.7 6.8 7.0 6.6 6.4 6.3 6.5 6.7 6.5 6.1 5.9 6.4 6.3 6.3 6.2 5.8
9.1 9.2 9.4 9.6 9.5 9.3 9.2 9.1 9.2 9.6 7.5 7.7 8.7 8.8 8.7 8.8 8.5 9.2 9.1 8.5 8.6 8.3 8.3 8.0 7.7 7.6 7.0 6.8 6.7 6.7 6.8 6.8 6.6 6.5 6.8 6.7 6.6 6.3 6.3 6.4 6.2 6.2 6.2 6.3
9.3 9.5 9.3 9.4 9.4 9.4 9.4 9.2 9.3 9.2 9.4 7.9 7.3 8.3 8.8 9.4 9.1 9.1 8.9 7.6 8.5 9.2 8.8 8.1 7.9 7.6 7.3 6.9 6.8 6.7 6.8 6.7 6.6 6.9 7.0 7.1 7.1 6.7 6.9 6.4 6.2 5.9 5.9 6.1
9.7 9.5 9.4 9.4 9.7 9.6 9.6 9.6 9.4 9.2 8.7 9.4 9.4 8.4 9.3 9.2 8.8 8.8 8.9 9.3 9.4 9.3 9.2 8.8 8.0 7.7 7.4 7.1 7.0 7.0 7.2 7.1 7.0 7.3 7.4 7.3 7.2 7.2 6.8 6.5 6.2 5.9 5.8 6.2
9.7 9.6 9.4 9.3 9.5 9.7 9.5 9.3 9.2 9.5 9.4 9.2 8.5 9.2 9.2 9.3 9.7 9.3 9.4 9.4 9.3 9.1 9.0 9.0 8.2 7.8 7.6 7.4 7.4 7.5 7.7 7.4 7.3 7.6 7.2 7.4 7.5 7.2 6.6 6.4 6.2 5.9 5.9 6.0
9.6 9.6 9.5 9.1 9.3 9.6 9.4 9.3 9.4 9.5 9.4 9.5 9.4 9.3 8.9 8.8 9.0 10.1 9.6 9.7 9.3 9.1 9.0 8.9 8.6 8.0 7.9 7.7 8.0 7.9 7.8 7.6 7.6 7.5 7.3 7.1 7.0 6.9 6.5 6.1 6.1 6.1 5.9 6.0
9.5 9.4 9.5 9.5 9.4 9.6 9.7 9.5 9.5 9.4 9.3 9.4 9.5 9.5 9.3 9.4 9.6 9.5 9.3 9.6 9.4 9.4 9.2 8.7 8.6 8.2 8.1 7.9 8.0 7.9 7.8 7.7 7.7 7.5 7.3 7.1 6.8 6.6 6.5 6.3 6.1 6.3 6.5 6.9
9.6 9.6 9.6 9.2 9.2 9.3 9.8 9.8 9.6 9.6 9.4 9.3 9.3 9.5 9.5 9.3 9.4 9.6 9.6 9.5 9.3 9.4 9.0 8.8 8.7 8.3 8.2 8.0 8.3 8.2 7.9 7.8 7.7 7.7 7.4 7.4 7.0 6.7 6.5 6.5 6.4 6.6 6.7 7.1
8.9 9.2 9.3 9.1 9.1 9.3 9.5 9.9 9.6 9.6 9.6 9.5 9.3 9.5 9.6 9.5 9.6 9.6 9.5 9.5 9.5 9.4 9.2 8.8 8.8 8.5 8.4 8.5 8.5 8.4 8.2 8.0 8.3 8.1 7.8 7.7 7.0 6.7 6.7 6.9 6.8 6.8 7.1 7.6
8.9 9.1 9.6 9.2 9.2 8.3 9.4 9.6 9.7 9.6 9.6 9.6 9.4 9.5 9.6 9.4 9.3 9.3 9.4 9.4 9.4 9.4 9.4 9.0 8.8 8.7 8.4 8.6 8.4 8.5 8.4 8.4 8.4 8.4 8.0 7.9 7.5 7.1 6.9 7.1 7.1 7.0 7.1 7.0
8.4 8.5 9.2 9.2 9.2 9.2 9.4 9.4 9.7 9.7 9.6 9.7 9.6 9.4 9.5 9.4 9.4 9.4 9.3 9.5 9.5 9.5 9.1 9.2 8.9 8.7 8.4 8.4 8.5 8.4 8.6 8.7 8.5 8.4 8.1 8.0 7.7 7.5 7.3 7.6 7.4 7.2 7.0 6.8
8.4 8.3 8.7 8.6 8.1 8.0 9.2 9.3 9.7 9.7 9.6 9.6 9.5 9.4 9.4 9.2 9.0 9.1 9.3 9.4 9.4 9.3 8.9 8.8 8.9 8.6 8.7 8.5 8.4 8.6 8.9 8.9 8.5 8.3 8.3 8.2 7.8 7.7 7.7 7.9 7.7 7.4 7.1 6.8
8.1 8.6 8.3 8.4 7.6 8.2 8.9 9.3 9.5 9.5 8.6 9.1 9.3 9.3 9.2 9.2 9.2 9.1 9.3 9.4 9.3 9.3 8.9 8.9 8.8 8.7 8.9 8.6 8.4 8.6 8.7 8.8 8.7 8.4 8.3 8.1 8.0 7.7 7.8 7.9 7.6 7.4 7.1 7.0
8.2 7.4 8.0 7.8 8.0 7.7 9.0 9.0 9.7 8.9 9.1 9.0 9.2 9.3 9.2 9.1 9.0 9.2 9.4 9.5 9.4 9.5 9.0 9.0 8.7 8.5 8.7 8.7 8.4 8.5 8.8 8.8 8.7 8.6 8.5 8.3 8.0 7.8 8.0 8.0 7.8 7.4 7.4 7.4
8.4 8.6 8.9 7.7 9.1 9.2 8.8 8.6 8.8 8.8 9.0 8.8 9.0 9.1 9.1 8.8 8.8 9.1 9.5 9.5 9.4 9.2 8.7 8.5 8.4 8.5 8.4 8.5 8.4 8.3 8.6 8.6 8.7 8.7 8.6 8.5 8.2 8.2 8.2 8.0 7.8 7.5 7.7 7.9
8.3 8.5 8.8 9.2 9.3 9.1 8.8 8.5 8.5 9.0 8.6 8.7 8.9 8.9 8.8 8.8 8.5 8.5 9.2 9.4 9.5 9.3 8.7 8.5 8.5 8.7 8.5 8.6 8.8 9.0 8.6 8.4 8.4 8.6 8.7 8.6 8.5 8.4 8.4 8.2 8.0 7.6 7.8 8.1
6.4 7.9 8.2 8.7 8.8 8.6 8.8 8.7 8.7 8.4 8.2 9.0 8.1 8.7 8.9 8.7 8.7 7.9 8.8 9.1 9.3 9.3 9.3 8.6 8.5 8.4 8.6 8.8 8.9 8.5 8.3 8.4 8.6 8.6 8.7 8.8 8.6 8.5 8.4 8.3 8.1 7.9 7.9 8.0
6.2 6.9 7.4 7.5 7.4 7.6 7.6 8.5 7.7 7.7 7.6 7.5 8.0 8.6 8.8 8.8 8.5 7.9 8.2 9.0 9.1 9.1 9.3 9.3 9.2 9.2 9.0 8.9 8.9 8.8 8.6 8.7 8.7 8.9 8.8 8.7 8.6 8.3 8.4 8.3 8.3 8.0 8.0 7.7
Wind_Speed
10 5 7 11 14 15 11 9 7 8 14 18 18 7 2 4 9 10 9 9 9 9 9 11 10 17 14 17 14 14 8 13 9 4 4 3 4 4 1 3 13 12 10 10
8 11 15 15 22 19 18 11 5 10 23 14 16 2 23 23 16 12 11 13 12 9 9 11 9 9 15 16 14 9 9 12 11 6 4 3 3 2 4 4 5 6 11 10
11 13 16 16 11 9 14 21 20 15 21 17 11 1 17 15 18 15 13 16 16 15 11 14 10 9 15 16 13 9 9 13 10 8 3 2 5 3 1 2 3 3 11 11
8 17 18 9 17 13 11 25 28 23 13 7 22 7 13 17 15 15 19 17 17 17 13 17 14 11 16 15 15 12 10 10 8 8 3 7 5 3 4 3 4 6 5 8
13 14 13 14 11 14 7 24 26 32 13 6 7 6 5 7 15 8 9 19 20 20 19 21 19 16 14 18 16 14 12 10 7 7 5 5 5 3 3 4 9 10 4 12
12 11 8 9 10 6 4 6 6 6 4 5 5 6 5 3 8 7 6 8 12 20 21 20 21 19 17 18 17 15 14 14 9 8 7 7 8 6 6 2 3 4 4 8
12 12 10 8 8 8 4 5 4 5 4 2 12 8 6 11 11 11 11 9 8 22 20 19 21 19 17 20 19 16 17 14 13 11 8 8 7 7 8 5 5 7 5 2
7 10 10 13 7 5 8 8 5 6 6 4 8 8 6 18 18 11 11 7 12 22 19 20 20 20 17 22 20 20 18 16 14 13 10 7 8 5 5 8 8 7 8 7
6 12 11 15 16 9 9 6 8 4 8 2 5 5 4 8 18 17 18 9 18 14 20 22 18 18 18 20 20 20 19 16 15 13 10 8 7 7 9 12 9 7 7 7
13 7 10 13 10 8 10 8 4 3 5 5 6 7 6 10 20 15 14 17 24 16 19 19 17 18 19 19 16 19 20 18 16 12 11 9 8 7 12 9 10 9 5 3
11 6 17 5 6 12 3 5 5 2 4 3 1 5 8 9 7 3 13 18 21 19 16 18 17 15 19 17 16 18 17 15 13 11 10 9 8 8 11 9 8 8 4 6
11 7 7 11 8 11 9 11 10 5 9 4 5 4 8 13 12 17 29 13 17 20 17 19 18 14 19 15 17 18 16 15 14 12 11 9 10 10 11 11 10 8 8 6
6 3 4 10 8 3 9 8 8 8 5 8 3 5 6 10 18 14 7 13 16 18 13 18 18 15 19 15 18 17 16 15 14 11 13 11 11 10 9 16 14 12 11 10
8 3 8 7 9 6 8 9 9 7 3 6 6 5 13 19 11 6 7 8 18 18 16 17 18 15 17 16 18 17 16 15 14 12 11 10 11 8 9 9 13 12 8 8
4 6 5 9 7 9 12 11 12 10 10 7 8 9 17 8 8 4 9 8 11 14 14 13 18 12 14 15 16 18 16 15 14 12 10 11 13 10 8 9 8 8 12 9
7 5 5 7 9 14 11 7 12 11 9 6 6 2 10 11 8 8 10 13 10 14 16 13 18 16 18 18 17 17 15 14 15 15 12 13 13 12 10 8 8 8 8 8
6 4 3 7 8 10 8 8 5 6 9 9 6 8 4 5 8 8 9 13 14 13 13 14 20 20 19 19 18 17 16 13 16 17 15 12 13 14 12 9 9 10 9 7
11 11 4 6 6 6 10 7 10 8 10 10 7 4 6 10 10 11 11 9 4 8 9 10 16 18 16 18 18 17 14 15 16 16 16 13 13 13 12 11 9 7 6 7
4 2 3 2 5 7 10 10 6 7 5 8 7 8 12 11 13 7 7 9 7 7 3 12 15 16 15 16 16 17 16 15 15 15 16 14 14 14 12 12 10 7 7 5
12 6 5 5 2 3 3 7 9 4 2 4 12 10 11 10 6 3 6 6 8 7 3 4 14 15 18 17 18 18 16 13 12 13 14 13 14 15 14 12 10 6 6 6
3 4 5 4 2 7 6 12 7 7 6 8 13 10 10 6 5 4 3 5 4 4 5 9 9 17 19 19 19 19 17 16 14 11 9 11 13 14 13 11 8 8 7 6
7 5 2 2 3 7 5 23 4 5 5 8 9 8 8 7 4 5 6 3 4 8 8 9 8 9 18 19 18 16 16 13 13 12 12 12 11 11 10 12 9 9 9 9
9 6 6 11 8 9 6 10 15 6 7 5 5 6 5 4 6 7 5 5 3 6 5 5 4 10 14 17 17 16 13 13 13 12 11 11 12 11 12 12 11 10 10 9
14 13 4 6 4 8 20 13 8 11 7 1 2 6 6 4 2 7 7 6 5 4 3 3 7 8 9 13 12 10 13 13 13 13 11 10 12 11 11 9 10 10 10 10
5 8 10 6 15 19 2 9 13 16 14 7 4 5 5 6 5 6 7 7 6 4 4 3 8 8 9 12 11 11 12 14 12 12 11 11 10 10 10 5 4 7 9 10
4 4 4 3 12 11 16 10 9 15 16 12 8 6 6 6 6 8 7 7 6 7 6 8 8 9 7 8 8 9 11 13 12 11 10 10 10 9 7 7 5 14 12 12
Wind_Direction
248 233 230 215 176 170 170 176 228 335 325 338 297 290 2 261 175 166 170 175 180 178 182 160 155 165 165 160 164 181 140 163 156 159 159 174 186 216 168 114 155 161 181 199
250 233 242 146 159 180 186 163 102 8 333 304 291 28 32 322 299 296 174 180 182 181 170 159 153 145 148 161 166 162 146 152 163 168 178 180 160 100 92 89 51 178 183 191
214 241 241 173 167 198 186 174 172 155 214 265 246 196 137 245 264 282 217 189 183 177 166 162 160 160 156 163 166 166 158 162 167 180 166 119 76 77 152 133 193 215 194 200
233 239 254 220 196 210 237 184 186 213 186 199 198 138 221 197 250 239 200 186 187 177 165 164 167 172 159 167 166 170 153 167 171 173 150 145 144 165 229 84 67 355 249 200
243 248 256 260 256 189 241 154 195 179 184 169 192 107 158 199 227 221 207 192 181 177 174 168 174 174 168 165 171 173 155 164 171 174 177 166 154 169 116 120 125 214 291 278
250 265 247 250 267 276 290 317 287 236 222 283 208 111 298 246 213 241 187 201 196 175 176 174 176 178 175 170 169 170 165 175 171 173 173 175 172 135 120 157 121 50 21 358
275 266 275 275 296 281 230 311 316 336 342 135 84 66 276 263 245 233 217 213 234 179 176 176 177 182 175 170 172 173 175 175 177 176 166 175 183 136 141 139 103 103 93 123
225 279 255 260 235 206 227 201 168 237 256 146 116 156 231 224 237 230 257 281 279 174 175 180 179 177 175 171 173 175 178 181 180 175 169 170 171 147 156 125 123 147 149 157
239 242 243 215 230 177 261 279 240 234 276 31 146 235 320 203 244 258 250 230 251 178 177 179 178 170 175 172 175 173 177 179 178 175 161 161 165 150 123 133 154 173 163 163
248 283 269 258 206 227 170 227 305 315 249 267 210 174 187 199 238 227 246 244 246 197 175 177 177 166 172 172 169 169 174 175 177 166 165 162 159 165 128 149 154 183 200 140
224 195 274 327 170 193 169 222 263 201 171 186 226 272 204 188 258 209 284 192 219 174 168 172 175 162 170 166 155 164 169 167 168 166 166 151 160 166 139 153 167 190 155 154
212 193 250 247 202 175 187 196 197 141 283 221 177 225 190 174 210 164 216 216 174 170 169 166 169 159 166 157 155 161 166 168 172 172 163 165 161 169 152 164 186 193 164 198
211 195 287 318 317 204 190 224 205 208 200 241 173 240 186 172 210 217 208 175 165 165 165 159 159 159 164 156 158 160 167 170 170 159 168 173 169 173 180 167 182 195 180 186
93 181 178 221 228 186 204 208 223 196 151 234 224 240 164 200 210 312 326 190 152 163 166 159 159 164 160 154 157 165 168 166 165 161 166 166 172 177 179 188 170 182 188 178
134 201 247 247 278 274 253 203 207 202 222 175 250 234 177 203 218 176 105 135 128 156 162 153 161 158 156 158 161 168 168 166 158 158 163 170 173 177 173 184 184 165 174 182
306 247 248 289 305 295 291 225 204 202 215 239 235 252 187 213 198 147 136 142 142 160 170 165 157 155 162 166 169 170 170 164 156 169 165 171 170 179 179 169 169 166 169 174
289 250 231 264 277 291 310 206 239 222 199 189 218 227 185 117 113 117 145 159 166 168 177 167 162 167 169 171 169 174 173 160 164 174 177 179 166 175 176 169 168 180 181 159
279 303 198 236 281 278 251 246 199 218 195 206 223 201 127 144 83 74 67 72 62 188 167 158 167 171 169 167 173 168 165 166 166 173 177 175 171 171 167 173 179 176 160 165
214 114 337 103 246 251 284 286 218 175 243 171 169 107 62 85 80 36 58 76 77 43 223 164 166 161 155 162 163 167 172 171 165 171 178 172 168 168 168 176 182 174 158 163
88 99 113 16 69 284 354 326 343 130 40 110 104 97 86 85 74 257 33 25 58 76 36 5 158 156 158 165 162 167 174 165 170 176 178 167 164 167 174 175 174 170 167 160
20 339 143 207 210 278 306 318 3 94 206 60 78 84 95 100 176 154 125 29 358 38 2 336 189 164 170 164 169 177 170 177 177 165 157 161 165 166 167 169 167 159 153 149
178 129 305 260 105 255 338 345 66 193 56 83 87 89 99 130 189 138 142 113 14 24 355 329 164 151 163 166 168 173 180 169 163 161 168 165 162 166 162 166 167 162 154 149
253 229 199 202 210 197 140 216 274 94 87 50 102 116 113 102 177 178 123 96 51 50 357 9 70 134 154 163 168 170 168 155 158 158 162 164 165 170 170 170 163 164 160 160
349 28 333 5 293 174 164 225 200 93 71 21 149 103 116 98 29 138 120 96 74 53 36 17 67 98 120 150 152 146 143 150 156 161 161 166 172 179 172 166 167 171 173 167
282 321 333 280 25 344 323 225 135 126 121 338 259 123 102 96 37 124 112 112 114 83 37 69 97 103 107 118 123 135 142 150 161 165 167 173 179 183 165 93 153 183 178 176
22 12 357 292 343 305 266 247 130 140 156 168 166 107 93 105 92 97 97 98 93 93 67 69 91 103 114 115 127 141 147 158 164 167 172 177 182 180 134 135 109 56 62 17